TimeEDT,TemperatureF,Dew PointF,Humidity,Sea Level PressureIn,VisibilityMPH,Wind Direction,Wind SpeedMPH,Gust SpeedMPH,PrecipitationIn,Events,Conditions,WindDirDegrees,DateUTC
12:15 AM,62.6,53.6,72,29.78,10.0,South,5.8,-,N/A,,Clear,180,2014-03-12 04:15:00
12:35 AM,62.6,53.6,72,29.77,10.0,South,6.9,-,N/A,,Clear,190,2014-03-12 04:35:00
12:55 AM,62.6,53.6,72,29.77,10.0,South,6.9,-,N/A,,Clear,180,2014-03-12 04:55:00
1:15 AM,62.6,53.6,72,29.76,10.0,South,6.9,-,N/A,,Clear,180,2014-03-12 05:15:00
1:35 AM,62.6,53.6,72,29.75,10.0,South,5.8,-,N/A,,Clear,180,2014-03-12 05:35:00
1:55 AM,62.6,53.6,72,29.74,10.0,South,5.8,-,N/A,,Scattered Clouds,180,2014-03-12 05:55:00
2:15 AM,62.6,53.6,72,29.73,10.0,South,5.8,-,N/A,,Scattered Clouds,190,2014-03-12 06:15:00
2:35 AM,62.6,53.6,72,29.74,10.0,SSW,8.1,-,N/A,,Mostly Cloudy,210,2014-03-12 06:35:00
2:55 AM,62.6,53.6,72,29.74,10.0,SSW,11.5,-,N/A,,Overcast,210,2014-03-12 06:55:00
3:15 AM,64.4,55.4,73,29.72,10.0,SW,9.2,-,N/A,,Mostly Cloudy,220,2014-03-12 07:15:00
3:35 AM,64.4,55.4,73,29.72,10.0,SW,10.4,-,N/A,,Scattered Clouds,230,2014-03-12 07:35:00
3:55 AM,64.4,55.4,73,29.72,10.0,SW,11.5,-,N/A,Rain,Light Rain,220,2014-03-12 07:55:00
4:15 AM,62.6,55.4,77,29.72,10.0,SW,13.8,21.9,N/A,Rain,Light Rain,230,2014-03-12 08:15:00
4:35 AM,62.6,57.2,82,29.73,10.0,SW,11.5,17.3,N/A,Rain,Light Rain,230,2014-03-12 08:35:00
4:55 AM,62.6,53.6,72,29.73,10.0,WSW,16.1,20.7,N/A,Rain,Light Rain,240,2014-03-12 08:55:00
5:15 AM,59.0,57.2,94,29.75,10.0,SW,17.3,21.9,N/A,Rain,Light Rain,230,2014-03-12 09:15:00
5:35 AM,57.2,57.2,100,29.75,10.0,SW,9.2,17.3,N/A,Rain,Rain,220,2014-03-12 09:35:00
5:55 AM,55.4,-9999,N/A,29.75,7.0,SSW,4.6,-,N/A,Rain,Rain,200,2014-03-12 09:55:00
6:15 AM,55.4,-9999,N/A,29.73,7.0,SSW,5.8,-,N/A,Rain,Rain,200,2014-03-12 10:15:00
6:35 AM,53.6,-9999,N/A,29.72,7.0,South,4.6,-,N/A,Rain,Rain,180,2014-03-12 10:35:00
6:55 AM,53.6,-9999,N/A,29.70,10.0,SE,4.6,-,N/A,Rain,Rain,140,2014-03-12 10:55:00
7:15 AM,53.6,-9999,N/A,29.67,7.0,ESE,5.8,-,N/A,Rain,Light Rain,110,2014-03-12 11:15:00
7:35 AM,53.6,-9999,N/A,29.67,7.0,Calm,Calm,-,N/A,Rain,Light Rain,0,2014-03-12 11:35:00
7:55 AM,53.6,-9999,N/A,29.67,10.0,SSW,4.6,-,N/A,,Overcast,200,2014-03-12 11:55:00
8:15 AM,53.6,-9999,N/A,29.67,10.0,SSW,5.8,-,N/A,,Overcast,200,2014-03-12 12:15:00
8:35 AM,55.4,-9999,N/A,29.69,7.0,SW,10.4,-,N/A,,Overcast,220,2014-03-12 12:35:00
8:55 AM,55.4,-9999,N/A,29.70,5.0,SW,10.4,-,N/A,,Haze,220,2014-03-12 12:55:00
9:15 AM,55.4,-9999,N/A,29.69,4.0,SW,8.1,-,N/A,,Haze,220,2014-03-12 13:15:00
9:35 AM,55.4,-9999,N/A,29.69,4.0,SSW,8.1,-,N/A,,Haze,210,2014-03-12 13:35:00
9:55 AM,55.4,-9999,N/A,29.68,10.0,South,9.2,-,N/A,,Overcast,190,2014-03-12 13:55:00
10:15 AM,59.0,-9999,N/A,29.67,10.0,SSW,8.1,-,N/A,,Overcast,210,2014-03-12 14:15:00
10:35 AM,60.8,-9999,N/A,29.66,10.0,SW,9.2,16.1,N/A,,Overcast,220,2014-03-12 14:35:00
10:55 AM,62.6,62.6,100,29.66,10.0,SW,12.7,20.7,N/A,,Overcast,220,2014-03-12 14:55:00
11:15 AM,62.6,62.6,100,29.66,10.0,SW,13.8,19.6,N/A,,Overcast,230,2014-03-12 15:15:00
11:35 AM,66.2,64.4,94,29.64,10.0,SSW,15.0,18.4,N/A,,Mostly Cloudy,210,2014-03-12 15:35:00
11:55 AM,68.0,62.6,83,29.63,10.0,SSW,12.7,19.6,N/A,,Mostly Cloudy,200,2014-03-12 15:55:00
12:15 PM,66.2,60.8,83,29.63,10.0,WSW,18.4,23.0,N/A,,Overcast,240,2014-03-12 16:15:00
12:35 PM,68.0,60.8,78,29.62,10.0,WSW,15.0,23.0,N/A,,Overcast,240,2014-03-12 16:35:00
12:55 PM,68.0,60.8,78,29.62,10.0,SW,19.6,26.5,N/A,,Overcast,230,2014-03-12 16:55:00
1:15 PM,68.0,60.8,78,29.61,10.0,WSW,17.3,25.3,N/A,,Overcast,240,2014-03-12 17:15:00
1:35 PM,68.0,60.8,78,29.60,10.0,WSW,17.3,27.6,N/A,,Overcast,250,2014-03-12 17:35:00
1:55 PM,69.8,60.8,73,29.58,10.0,WSW,12.7,-,N/A,,Overcast,250,2014-03-12 17:55:00
2:15 PM,69.8,60.8,73,29.57,10.0,WSW,12.7,25.3,N/A,,Overcast,240,2014-03-12 18:15:00
2:35 PM,71.6,60.8,69,29.55,10.0,WSW,17.3,24.2,N/A,,Overcast,250,2014-03-12 18:35:00
2:55 PM,71.6,60.8,69,29.54,10.0,WSW,18.4,27.6,N/A,,Overcast,240,2014-03-12 18:55:00
3:15 PM,71.6,60.8,69,29.53,10.0,WSW,17.3,23.0,N/A,,Overcast,250,2014-03-12 19:15:00
3:35 PM,71.6,60.8,69,29.53,10.0,WSW,15.0,24.2,N/A,,Overcast,250,2014-03-12 19:35:00
3:55 PM,71.6,60.8,69,29.53,10.0,WSW,16.1,21.9,N/A,,Overcast,250,2014-03-12 19:55:00
4:15 PM,71.6,60.8,69,29.52,10.0,WSW,10.4,18.4,N/A,,Overcast,250,2014-03-12 20:15:00
4:35 PM,73.4,60.8,65,29.51,10.0,WSW,20.7,29.9,N/A,,Scattered Clouds,240,2014-03-12 20:35:00
4:55 PM,73.4,59.0,61,29.51,10.0,WSW,15.0,34.5,N/A,,Mostly Cloudy,250,2014-03-12 20:55:00
5:15 PM,75.2,59.0,57,29.50,10.0,WSW,13.8,24.2,N/A,,Mostly Cloudy,250,2014-03-12 21:15:00
5:35 PM,73.4,59.0,61,29.50,10.0,West,17.3,29.9,N/A,,Scattered Clouds,260,2014-03-12 21:35:00
5:55 PM,73.4,59.0,61,29.50,10.0,WSW,17.3,26.5,N/A,,Scattered Clouds,250,2014-03-12 21:55:00
6:15 PM,73.4,57.2,57,29.50,10.0,WSW,18.4,24.2,N/A,,Scattered Clouds,240,2014-03-12 22:15:00
6:35 PM,73.4,55.4,53,29.50,10.0,WSW,19.6,28.8,N/A,,Clear,250,2014-03-12 22:35:00
6:55 PM,71.6,55.4,57,29.50,10.0,WSW,13.8,26.5,N/A,,Clear,250,2014-03-12 22:55:00
7:15 PM,71.6,55.4,57,29.51,10.0,WSW,11.5,24.2,N/A,,Clear,240,2014-03-12 23:15:00
7:35 PM,69.8,55.4,60,29.51,10.0,WSW,12.7,19.6,N/A,,Clear,240,2014-03-12 23:35:00
7:55 PM,69.8,55.4,60,29.52,10.0,WSW,12.7,-,N/A,,Clear,240,2014-03-12 23:55:00
8:15 PM,69.8,55.4,60,29.52,10.0,WSW,13.8,23.0,N/A,,Clear,240,2014-03-13 00:15:00
8:35 PM,69.8,55.4,60,29.53,10.0,WSW,15.0,-,N/A,,Clear,250,2014-03-13 00:35:00
8:55 PM,69.8,55.4,60,29.54,10.0,WSW,17.3,29.9,N/A,,Clear,250,2014-03-13 00:55:00
9:15 PM,69.8,55.4,60,29.55,10.0,WSW,16.1,25.3,N/A,,Mostly Cloudy,250,2014-03-13 01:15:00
9:35 PM,68.0,55.4,64,29.58,10.0,WNW,28.8,42.6,N/A,,Overcast,290,2014-03-13 01:35:00
9:55 PM,66.2,51.8,60,29.61,10.0,WNW,29.9,42.6,N/A,,Overcast,300,2014-03-13 01:55:00
10:15 PM,62.6,44.6,52,29.64,10.0,WNW,21.9,34.5,N/A,,Mostly Cloudy,290,2014-03-13 02:15:00
10:35 PM,59.0,39.2,48,29.67,10.0,WNW,23.0,42.6,N/A,,Mostly Cloudy,300,2014-03-13 02:35:00
10:55 PM,55.4,41.0,58,29.71,10.0,WNW,15.0,21.9,N/A,,Clear,300,2014-03-13 02:55:00
11:15 PM,53.6,37.4,54,29.73,10.0,WNW,12.7,29.9,N/A,,Clear,300,2014-03-13 03:15:00
11:35 PM,51.8,37.4,58,29.76,10.0,NW,17.3,33.4,N/A,,Clear,310,2014-03-13 03:35:00
11:55 PM,51.8,35.6,54,29.77,10.0,WNW,19.6,31.1,N/A,,Clear,300,2014-03-13 03:55:00